Location: Brown Observing Site
(43.4354°N, 116.3366°W)
Time: 10:23:56
(UTC-06:00)

Envisat - Pass Details

Date: 26 March 2019
Orbit: 764 x 766 km, 98.1° (Epoch: 18 October)

Event Time Altitude Azimuth Distance (km) Brightness Sun altitude
Rises 21:50:39 0° 218° (SW) 3,216 6.4 -19.4°
Reaches altitude 10° 21:54:24 10° 246° (WSW) 2,298 6.0 -20.0°
Maximum altitude 21:56:33 13° 272° (W) 2,123 6.2 -20.4°
Drops below altitude 10° 21:58:42 10° 297° (WNW) 2,305 6.7 -20.7°
Sets 22:02:30 0° 326° (NNW) 3,239 7.2 -21.4°
